Greenville, ME

7:05 AM EST on November 17, 2019 (GMT -0500)
Greenville

Weather History for KGNR - September, 2019

Change the Weather History Date:

Thursday, September 12, 2019

  Actual Average (WUND) Record (WUND)
Temperature  
Mean Temperature 54 °F -  
Max Temperature 62 °F - - (-1)
Min Temperature 46 °F - - (-1)
Degree Days  
Heating Degree Days 11    
Growing Degree Days 4 (Base 50)    
Moisture  
Dew Point 44 °F    
Average Humidity 73    
Maximum Humidity 90    
Minimum Humidity 50    
Precipitation  
Precipitation 0.00 in - - ()
Sea Level Pressure  
Sea Level Pressure 30.20 in    
Wind  
Wind Speed 8 mph ()    
Max Wind Speed 13 mph    
Max Gust Speed 20 mph    
Averages and records for this station are not official NWS values.
T = Trace of Precipitation, MM = Missing Value Source: Averaged Metar Reports

Daily Weather History Graph

Daily Weather History Graph

Search for Another Location

Airport or City:

Astronomy

Sep. 12, 2019 Rise Set
Actual Time 6:12 AM EDT 6:55 PM EDT
Civil Twilight 5:42 AM EDT 7:25 PM EDT
Nautical Twilight 5:07 AM EDT 8:00 PM EDT
Astronomical Twilight 4:30 AM EDT 8:37 PM EDT
Moon 6:44 PM EDT (9/12) 4:21 AM EDT (9/12)
Length of Visible Light 13h 42m
Length of Day
12h 42m
Waxing Gibbous, 98% of the Moon is Illuminated
Sep 12
Waxing Gibbous
Sep 14
Full
Sep 21
Last Quarter
Sep 28
New
Oct 5
First Quarter

Hourly Weather History & Observations

Time (EDT) Temp. Dew Point Humidity Pressure Visibility Wind Dir Wind Speed Gust Speed Precip Events Conditions
12:56 AM 48.9 °F 46.0 °F 90% 30.06 in - NNW 6.9 mph - N/A   Unknown
1:56 AM 48.9 °F 45.0 °F 86% 30.06 in - NNW 11.5 mph - N/A   Unknown
2:56 AM 48.0 °F 44.1 °F 86% 30.06 in - NNW 12.7 mph 19.6 mph N/A   Unknown
3:56 AM 48.0 °F 44.1 °F 86% 30.08 in - NNW 9.2 mph - N/A   Unknown
4:56 AM 48.0 °F 44.1 °F 86% 30.11 in - North 8.1 mph - N/A   Unknown
5:56 AM 46.9 °F 43.0 °F 86% 30.12 in - NNW 12.7 mph - N/A   Unknown
7:56 AM 46.9 °F 44.1 °F 90% 30.16 in - North 9.2 mph - N/A   Unknown
8:56 AM 48.0 °F 43.0 °F 83% 30.19 in - North 12.7 mph - N/A   Unknown
9:56 AM 53.1 °F 44.1 °F 71% 30.19 in - North 11.5 mph - N/A   Unknown
10:56 AM 54.0 °F 45.0 °F 72% 30.19 in - NNW 9.2 mph - N/A   Unknown
12:56 PM 57.0 °F 45.0 °F 64% 30.20 in - North 9.2 mph 17.3 mph N/A   Unknown
1:56 PM 57.9 °F 44.1 °F 60% 30.20 in - NNW 9.2 mph 17.3 mph N/A   Unknown
2:56 PM 61.0 °F 42.1 °F 50% 30.20 in - North 10.4 mph - N/A   Unknown
3:56 PM 61.0 °F 43.0 °F 52% 30.21 in - NNW 5.8 mph - N/A   Unknown
4:56 PM 62.1 °F 43.0 °F 50% 30.22 in - North 6.9 mph - N/A   Unknown
5:56 PM 59.0 °F 44.1 °F 58% 30.23 in - North 4.6 mph - N/A   Unknown
6:56 PM 55.0 °F 44.1 °F 67% 30.27 in - North 5.8 mph - N/A   Unknown
7:56 PM 53.1 °F 45.0 °F 74% 30.29 in - North 5.8 mph - N/A   Unknown
8:56 PM 52.0 °F 42.1 °F 69% 30.30 in - NNE 5.8 mph - N/A   Unknown
9:56 PM 50.0 °F 41.0 °F 71% 30.32 in - NW 6.9 mph - N/A   Unknown
10:56 PM 51.1 °F 41.0 °F 68% 30.33 in - North 6.9 mph - N/A   Unknown
11:56 PM 48.9 °F 42.1 °F 77% 30.34 in - North 8.1 mph - N/A   Unknown